TIME,DELAY(SENSOR),PRES,OXYGEN,RAWTEMP,T(OPTODE),TCPHASE,FLUOR,BETA(BETA700),BETA(BETA412),BETA(BETA440),CDOM,C(CSC),ED(ED412.20),ED(ED444.00),ED(ED489.60),ED(ED554.30),LU(LU412.10),LU(LU443.90),LU(LU489.70),LU(LU554.70),COMP,TILTX,TILTY,CHECK
1338520126,5808,893.6099853515625000,31.8939495086669920,564.7279052734375000,4.3392767906188965,56.8294410705566400,56,99,101,78,83,15512,0,0,0,0,2147124406,2147772452,2147571382,2147574226,867,2,13,15821
1338523722,5810,981.5999755859375000,38.9207687377929700,572.2645874023438000,4.1051650047302250,55.7989807128906250,55,99,101,78,84,15519,0,0,0,0,2147126701,2147777764,2147575936,2147573494,782,2,13,53036
1338527322,5813,984.9500122070312000,40.4276084899902340,573.4213256835938000,4.0691909790039060,55.5909690856933600,55,100,101,79,84,15519,0,0,0,0,2147122102,2147773824,2147573933,2147574253,3359,2,13,8922
1338530922,5809,995.1799926757812000,40.3945693969726560,574.4879150390625000,4.0360112190246580,55.6017494201660160,55,98,101,79,83,15516,0,0,0,0,2147124379,2147778989,2147574829,2147572489,201,2,13,31933
1338534522,5813,999.5499877929688000,41.1800689697265600,575.3178710937500000,4.0101847648620605,55.4979209899902340,55,98,103,78,82,15516,0,0,0,0,2147124626,2147775634,2147574848,2147574701,118,2,13,10193
1338538122,5809,998.3099975585938000,40.8434295654296900,575.6206054687500000,4.0007629394531250,55.5515518188476560,55,97,102,77,82,15516,0,0,0,0,2147124306,2147772306,2147572589,2147570843,249,2,13,15638
1338541722,5809,1005.6300048828125000,41.2936401367187500,576.3604125976562000,3.9777369499206543,55.4895210266113300,56,101,101,78,83,15516,0,0,0,0,2147123081,2147776320,2147574409,2147573376,481,2,13,34882
1338545322,5809,1004.4600219726562000,40.5823402404785160,576.0225219726562000,3.9882531166076660,55.5913696289062500,56,97,101,78,85,15518,0,0,0,0,2147124626,2147776822,2147575817,2147573184,3460,2,13,592
1338548922,5810,996.5200195312500000,40.9581298828125000,576.7578125000000000,3.9653630256652830,55.5444908142089840,55,99,101,77,84,15515,0,0,0,0,2147123730,2147775515,2147573851,2147574509,3258,2,13,56193
1338552522,5808,997.8699951171875000,41.9037895202636700,578.0076904296875000,3.9264450073242188,55.4239807128906250,55,99,102,78,84,15518,0,0,0,0,2147121792,2147776228,2147574418,2147572187,162,2,13,49475
1338556122,5809,1006.0599975585938000,42.4711990356445300,577.7244262695312000,3.9352660179138184,55.3383903503418000,55,99,101,78,84,15516,0,0,0,0,2147123712,2147776027,2147575579,2147572580,60,2,13,10470
1338559722,5812,1001.3099975585938000,41.0607490539550800,577.6433715820312000,3.9377880096435547,55.5425682067871100,55,100,101,77,84,15515,0,0,0,0,2147122980,2147774656,2147572763,2147572982,93,2,13,37277
1338563322,5807,1004.0499877929688000,41.2298812866210940,576.7686767578125000,3.9650230407714844,55.5032501220703100,56,98,100,79,83,15516,0,0,0,0,2147126107,2147780534,2147574921,2147572370,3591,2,13,28960
1338566922,5808,999.9899902343750000,41.1505393981933600,576.7122802734375000,3.9667799472808840,55.5163307189941400,55,98,101,79,83,15515,0,0,0,0,2147125824,2147779254,2147573577,2147573906,132,2,13,15349
1338570522,5810,1001.4899902343750000,41.5810508728027340,578.3054199218750000,3.9171710014343260,55.4705581665039060,55,96,101,77,84,15514,0,0,0,0,2147121097,2147776164,2147578816,2147573476,3395,2,13,57684
1338574122,5809,1011.9699707031250000,42.4459609985351560,577.8717041015625000,3.9306790828704834,55.3438301086425800,55,97,101,78,84,15511,0,0,0,0,2147124406,2147775524,2147574985,2147572516,3361,2,13,49748
1338577722,5809,1007.4899902343750000,41.4366798400878900,577.7954711914062000,3.9330520629882812,55.4910392761230500,55,102,100,78,83,15509,0,0,0,0,2147122596,2147776173,2147572352,2147574418,132,2,13,35071
1338581322,5811,1009.0700073242188000,40.3413391113281250,575.8723754882812000,3.9929280281066895,55.6285400390625000,55,99,101,79,84,15511,0,0,0,0,2147124333,2147774528,2147574701,2147573641,109,2,13,2410
1338584922,5808,1009.1500244140625000,40.8512992858886700,577.3927001953125000,3.9455950260162354,55.5693397521972660,55,99,102,77,83,15512,0,0,0,0,2147123392,2147772470,2147574893,2147572608,478,2,13,33449
1338588522,5807,1007.0800170898438000,41.7979698181152340,577.9719848632812000,3.9275550842285156,55.4357299804687500,55,98,101,78,84,15512,0,0,0,0,2147124370,2147777152,2147577289,2147573760,102,2,13,39773
1338592122,5808,1008.2399902343750000,42.1752586364746100,578.3270263671875000,3.9164979457855225,55.3868293762207000,54,99,102,77,82,15508,0,0,0,0,2147122633,2147777910,2147574080,2147572544,111,2,13,27080
1338595722,5807,1011.7199707031250000,42.1095504760742200,578.1577148437500000,3.9217720031738280,55.3905601501464840,56,99,101,77,85,15509,0,0,0,0,2147123968,2147773266,2147572306,2147571428,282,2,13,31797
1338599322,5808,1009.9799804687500000,41.9949684143066400,578.0969238281250000,3.9236640930175780,55.4091606140136700,56,100,101,78,83,15511,0,0,0,0,2147123849,2147774564,2147575926,2147573952,217,2,13,9949
1338602922,5810,1011.5599975585938000,41.7700119018554700,577.8399047851562000,3.9316689968109130,55.4382095336914060,55,98,101,78,82,15510,0,0,0,0,2147122523,2147778249,2147572854,2147570797,112,2,13,35584
1338606522,5809,1010.3900146484375000,42.0009689331054700,577.7429809570312000,3.9346849918365480,55.4018287658691400,55,98,101,78,85,15512,0,0,0,0,2147121188,2147777334,2147579053,2147573513,170,2,13,24460
1338610122,5810,1008.5000000000000000,41.8905296325683600,578.1569213867188000,3.9217970371246340,55.4253196716308600,55,97,100,78,84,15507,0,0,0,0,2147126537,2147778377,2147572534,2147569910,342,2,13,21359
1338613722,5807,1013.3400268554688000,42.1668815612793000,577.9025878906250000,3.9297180175781250,55.3847084045410160,55,98,101,78,84,15506,0,0,0,0,2147126281,2147770706,2147572955,2147573805,409,2,13,22031
1338617322,5811,1009.7700195312500000,41.3040199279785160,577.7609252929688000,3.9341299533843994,55.5032386779785160,54,99,101,79,84,15510,0,0,0,0,2147119963,2147774820,2147576768,2147572900,308,2,13,60841
1338620922,5809,1011.1900024414062000,41.5276985168457000,577.8748779296875000,3.9305779933929443,55.4769897460937500,54,100,101,77,82,15509,0,0,0,0,2147121307,2147777106,2147576941,2147571200,327,2,13,15056
1338624522,5810,1010.6599731445312000,41.7322006225585940,577.9733886718750000,3.9275090694427490,55.4474601745605500,56,97,100,77,83,15509,0,0,0,0,2147124388,2147779520,2147573970,2147575323,348,2,13,15967
1338628122,5810,1017.6300048828125000,42.2336997985839840,577.8591918945312000,3.9310679435729980,55.3730010986328100,54,98,101,77,85,15507,0,0,0,0,2147118756,2147775158,2147577563,2147572324,3536,2,13,26401
1338631722,5809,1011.4799804687500000,40.6409111022949200,577.8823242187500000,3.9303491115570070,55.6070289611816400,55,101,101,78,84,15508,0,0,0,0,2147121590,2147780425,2147576713,2147573357,322,2,13,33674
1338635322,5809,1007.5000000000000000,41.3534202575683600,577.8983764648438000,3.9298460483551025,55.4984397888183600,55,100,103,78,83,15502,0,0,0,0,2147124900,2147772096,2147573568,2147571958,3211,2,13,19980
1338638922,5811,1010.6400146484375000,41.4862403869628900,577.9348144531250000,3.9287130832672120,55.4815711975097660,55,98,101,78,84,15504,0,0,0,0,2147120283,2147773869,2147572544,2147573677,569,2,13,37873
1338642522,5809,1014.9600219726562000,41.4222412109375000,578.0325927734375000,3.9256689548492430,55.4914588928222660,54,98,101,77,83,15504,0,0,0,0,2147125339,2147773110,2147575323,2147572562,344,2,13,4722
1338646122,5810,1008.9099731445312000,40.4639396667480500,578.4464111328125000,3.9127810001373290,55.6348495483398440,56,97,102,77,84,15505,0,0,0,0,2147121691,2147775552,2147573156,2147573284,3488,2,13,42752
1338649722,5810,1017.8400268554688000,42.6906890869140600,578.9584960937500000,3.8968279361724854,55.3205604553222660,55,98,101,77,83,15504,0,0,0,0,2147126793,2147777956,2147576914,2147570651,457,2,13,56771
1338653322,5812,1017.2399902343750000,41.7746887207031250,577.3522949218750000,3.9468541145324707,55.4301910400390600,56,97,101,77,84,15503,0,0,0,0,2147121691,2147777517,2147572397,2147572315,3065,2,13,31464
1338656922,5810,1018.5000000000000000,42.0927581787109400,577.6633300781250000,3.9371700286865234,55.3925514221191400,55,97,101,79,83,15501,0,0,0,0,2147123254,2147777728,2147579227,2147569865,3219,2,13,40858
1338660522,5810,1018.3499755859375000,41.1402015686035160,576.7886962890625000,3.9644010066986084,55.5219306945800800,55,98,101,78,83,15502,0,0,0,0,2147121380,2147775250,2147576941,2147572324,3506,2,13,9872
1338664122,5808,1018.4500122070312000,40.4166717529296900,577.1968994140625000,3.9516930580139160,55.6328315734863300,55,98,101,78,84,15503,0,0,0,0,2147127853,2147778176,2147576749,2147568219,3527,2,13,12201
1338665155,5808,1020.5399780273438000,40.5456504821777340,576.9285888671875000,3.9600450992584230,55.6115303039550800,55,97,102,78,83,15498,0,0,0,0,2147123611,2147773851,2147580425,2147572845,171,2,13,6894
